This is the latest recevied weather packets stored in our database for station/object KB0BS-13. If no packets are shown the sender has not sent any weather packets the latest 10 day(s).
| Time | Temp. | Humidity | Pressure | Rain* | Wind** | Luminosity | Snow |
|---|---|---|---|---|---|---|---|
| 1777991882 | 6.67° C | 61% | 1005 hPa | 0 mm | - | 318 W/m² | - |
| 1777991579 | 7.22° C | 59% | 1005 hPa | 0 mm | - | 611 W/m² | - |
| 1777991276 | 6.67° C | 60% | 1004.9 hPa | 0 mm | - | 532 W/m² | - |
| 1777990973 | 6.11° C | 62% | 1004.8 hPa | 0 mm | - | 531 W/m² | - |
| 1777990671 | 6.67° C | 62% | 1004.8 hPa | 0 mm | - | 503 W/m² | - |
| 1777990368 | 6.11° C | 64% | 1004.7 hPa | 0 mm | - | 493 W/m² | - |
| 1777990064 | 6.11° C | 64% | 1004.8 hPa | 0 mm | - | 482 W/m² | - |
| 1777989761 | 5.56° C | 65% | 1004.6 hPa | 0 mm | - | 467 W/m² | - |
| 1777989458 | 5.56° C | 63% | 1004.6 hPa | 0 mm | - | 333 W/m² | - |
| 1777989154 | 5.56° C | 63% | 1004.5 hPa | 0 mm | - | 443 W/m² | - |
| 1777988850 | 5.56° C | 66% | 1004.3 hPa | 0 mm | - | 430 W/m² | - |
| 1777988548 | 5° C | 65% | 1004.2 hPa | 0 mm | - | 416 W/m² | - |
| 1777988245 | 5° C | 69% | 1004.3 hPa | 0 mm | - | 390 W/m² | - |
| 1777987941 | 5° C | 69% | 1003.7 hPa | 0 mm | - | 379 W/m² | - |
| 1777987636 | 5° C | 70% | 1003.7 hPa | 0 mm | - | 365 W/m² | - |
| 1777987334 | 4.44° C | 69% | 1003.7 hPa | 0 mm | - | 352 W/m² | - |
| 1777987031 | 4.44° C | 70% | 1003.9 hPa | 0 mm | - | 339 W/m² | - |
| 1777986729 | 4.44° C | 68% | 1004.2 hPa | 0 mm | - | 326 W/m² | - |
| 1777986426 | 4.44° C | 72% | 1004.1 hPa | 0 mm | - | 312 W/m² | - |
| 1777986125 | 4.44° C | 69% | 1004.1 hPa | 0 mm | - | 298 W/m² | - |
| 1777985821 | 3.89° C | 71% | 1004.2 hPa | 0 mm | - | 284 W/m² | - |
| 1777985518 | 3.89° C | 70% | 1004.2 hPa | 0 mm | - | 271 W/m² | - |
| 1777985214 | 3.89° C | 71% | 1004.2 hPa | 0 mm | - | 257 W/m² | - |
| 1777984911 | 3.89° C | 71% | 1004.2 hPa | 0 mm | - | 243 W/m² | - |
| 1777984607 | 3.33° C | 72% | 1004 hPa | 0 mm | - | 229 W/m² | - |
* Rain latest hour (hover to see other rain measurements)
** Current wind speed in m/s (hover to see current wind gust speed)